Location: Theodore Roosevelt National Park
(46.9990°N, 103.4631°W)
Time: 18:18:53
(UTC-06:00)

Iridium 37 - Visible Passes

Search period start: 24 June 2017 00:00
Search period end: 04 July 2017 00:00
Orbit: 776 x 779 km, 86.4° (Epoch: 24 June)

Date Brightness Start Highest point End Pass type
(mag) Time Alt. Az. Time Alt. Az. Time Alt. Az.
24 Jun 7.4 02:55:29 10° SE 02:59:47 27° E 03:04:06 10° NNE visible
25 Jun 8.0 02:23:34 10° ESE 02:26:35 16° ENE 02:29:37 10° NE visible
25 Jun 5.6 04:01:26 10° S 04:06:39 74° W 04:11:53 10° N visible
26 Jun 5.9 03:27:59 10° S 03:33:08 64° E 03:38:19 10° N visible
27 Jun 6.8 02:55:01 10° SSE 02:59:45 37° E 03:04:31 10° NNE visible
28 Jun 7.6 02:22:35 10° SE 02:26:29 22° E 02:30:23 10° NNE visible
28 Jun 5.8 04:01:44 10° SSW 04:06:48 52° W 04:11:55 10° N visible
29 Jun 8.1 01:51:13 10° E 01:53:20 13° ENE 01:55:29 10° NE visible
29 Jun 5.5 03:28:09 11° S 03:33:13 89° E 03:38:29 10° N visible
30 Jun 6.2 02:54:58 11° SSE 02:59:46 51° E 03:04:49 10° NNE visible
01 Jul 7.1 02:21:57 10° SE 02:26:25 30° E 02:30:54 10° NNE visible
01 Jul 6.3 04:02:15 10° SSW 04:07:01 38° W 04:11:52 10° N visible
02 Jul 7.8 01:49:50 10° ESE 01:53:12 18° ENE 01:56:35 10° NE visible
02 Jul 5.6 03:29:01 15° SSW 03:33:21 66° W 03:38:34 10° N visible
03 Jul 5.7 02:55:47 17° S 02:59:49 72° E 03:05:02 10° N visible
